{"data":{"norad_id":51854,"epoch":"2026-09-20T01:35:33.433152Z","epoch_age_seconds":89732,"freshness":"FRESH","line1":"1 51854U 22022C   26263.06635918  .00023167  00000+0  99733-3 0  9990","line2":"2 51854  53.2176 211.8474 0004497  85.7155 274.4357 15.22524090252574","mean_motion":15.2252409,"eccentricity":0.0004497,"inclination_deg":53.2176,"raan_deg":211.8474,"arg_perigee_deg":85.7155,"mean_anomaly_deg":274.4357,"bstar":0.00099733,"rev_number":25257,"period_min":94.579784284398,"perigee_km":495.13788618897,"apogee_km":501.32249083832,"semimajor_km":6876.3671885136,"source":"CELESTRAK","updated_at":"2026-09-20T09:00:39.944714Z"}}